This is the latest recevied weather packets stored in our database for station/object WX5RP. If no packets are shown the sender has not sent any weather packets the latest 10 day(s).
| Time | Temp. | Humidity | Pressure | Rain* | Wind** | Luminosity | Snow |
|---|---|---|---|---|---|---|---|
| 1777160717 | 13.33° C | 21% | 1006.8 hPa | 0 mm | - | 584 W/m² | - |
| 1777160117 | 12.78° C | 22% | 1007.1 hPa | 0 mm | - | 599 W/m² | - |
| 1777159517 | 12.78° C | 24% | 1007.3 hPa | 0 mm | - | 630 W/m² | - |
| 1777158916 | 12.78° C | 22% | 1007.2 hPa | 0 mm | - | 662 W/m² | - |
| 1777158316 | 12.78° C | 22% | 1007 hPa | 0 mm | - | 681 W/m² | - |
| 1777157716 | 12.22° C | 23% | 1007.4 hPa | 0 mm | - | 708 W/m² | - |
| 1777157116 | 12.78° C | 23% | 1007.4 hPa | 0 mm | - | 732 W/m² | - |
| 1777156516 | 12.22° C | 23% | 1007.5 hPa | 0 mm | - | 756 W/m² | - |
| 1777155916 | 12.22° C | 23% | 1008 hPa | 0 mm | - | 780 W/m² | - |
| 1777155316 | 12.22° C | 24% | 1008 hPa | 0 mm | - | 804 W/m² | - |
| 1777154716 | 11.67° C | 24% | 1008.1 hPa | 0 mm | - | 823 W/m² | - |
| 1777154116 | 12.22° C | 25% | 1008.1 hPa | 0 mm | - | 847 W/m² | - |
| 1777153516 | 11.67° C | 28% | 1008.2 hPa | 0 mm | - | 828 W/m² | - |
| 1777152916 | 12.22° C | 26% | 1008.4 hPa | 0 mm | - | 96 W/m² | - |
| 1777152316 | 11.11° C | 27% | 1008.7 hPa | 0 mm | - | 866 W/m² | - |
| 1777151716 | 11.11° C | 26% | 1008.7 hPa | 0 mm | - | 712 W/m² | - |
| 1777151116 | 10.56° C | 26% | 1008.7 hPa | 0 mm | - | 858 W/m² | - |
| 1777150516 | 11.11° C | 27% | 1008.8 hPa | 0 mm | - | 827 W/m² | - |
| 1777149916 | 10.56° C | 29% | 1008.8 hPa | 0 mm | - | 881 W/m² | - |
| 1777149316 | 10° C | 29% | 1009 hPa | 0 mm | - | 719 W/m² | - |
| 1777148716 | 9.44° C | 30% | 1009.2 hPa | 0 mm | - | 616 W/m² | - |
| 1777148116 | 10° C | 28% | 1009.2 hPa | 0 mm | - | 559 W/m² | - |
| 1777147515 | 10° C | 29% | 1009.2 hPa | 0 mm | - | 595 W/m² | - |
| 1777146916 | 10° C | 29% | 1009 hPa | 0 mm | - | 715 W/m² | - |
| 1777146316 | 9.44° C | 28% | 1009 hPa | 0 mm | - | 589 W/m² | - |
* Rain latest hour (hover to see other rain measurements)
** Current wind speed in m/s (hover to see current wind gust speed)